TimePDT,TemperatureF,Dew PointF,Humidity,Sea Level PressureIn,VisibilityMPH,Wind Direction,Wind SpeedMPH,Gust SpeedMPH,PrecipitationIn,Events,Conditions,WindDirDegrees,DateUTC
12:15 AM,61.7,39.9,45,30.08,10.0,SE,6.9,-,N/A,,Clear,140,2014-08-07 07:15:00
12:35 AM,63.1,39.4,42,30.08,10.0,SSE,5.8,-,N/A,,Clear,150,2014-08-07 07:35:00
12:55 AM,62.1,39.2,43,30.08,10.0,SE,6.9,-,N/A,,Clear,140,2014-08-07 07:55:00
1:15 AM,62.4,39.2,42,30.08,10.0,SE,8.1,-,N/A,,Clear,140,2014-08-07 08:15:00
1:35 AM,62.2,39.2,43,30.08,10.0,SSE,5.8,-,N/A,,Clear,150,2014-08-07 08:35:00
1:55 AM,60.8,39.7,46,30.08,10.0,Calm,Calm,-,N/A,,Clear,0,2014-08-07 08:55:00
2:15 AM,59.2,40.1,49,30.08,10.0,SSE,3.5,-,N/A,,Clear,160,2014-08-07 09:15:00
2:35 AM,59.7,39.9,48,30.08,10.0,Calm,Calm,-,N/A,,Clear,0,2014-08-07 09:35:00
2:55 AM,58.1,40.6,52,30.08,10.0,SSW,3.5,-,N/A,,Clear,200,2014-08-07 09:55:00
3:15 AM,57.9,40.6,53,30.08,10.0,Calm,Calm,-,N/A,,Clear,0,2014-08-07 10:15:00
3:35 AM,56.7,40.6,55,30.08,10.0,Calm,Calm,-,N/A,,Clear,0,2014-08-07 10:35:00
4:00 AM,55.6,40.6,57,30.08,10.0,Calm,Calm,-,N/A,,Clear,0,2014-08-07 11:00:00
4:15 AM,53.4,40.8,62,30.08,10.0,Calm,Calm,-,N/A,,Clear,0,2014-08-07 11:15:00
4:35 AM,52.3,40.8,65,30.08,10.0,Calm,Calm,-,N/A,,Clear,0,2014-08-07 11:35:00
4:55 AM,52.0,40.6,65,30.08,10.0,Calm,Calm,-,N/A,,Clear,0,2014-08-07 11:55:00
5:15 AM,51.4,40.3,66,30.09,10.0,Calm,Calm,-,N/A,,Clear,0,2014-08-07 12:15:00
5:35 AM,53.1,40.3,62,30.09,10.0,Calm,Calm,-,N/A,,Clear,0,2014-08-07 12:35:00
5:55 AM,51.4,40.5,66,30.09,7.0,South,3.5,-,N/A,,Clear,180,2014-08-07 12:55:00
6:15 AM,55.4,41.2,59,30.09,10.0,SE,5.8,-,N/A,,Clear,140,2014-08-07 13:15:00
6:35 AM,58.8,41.4,52,30.09,10.0,SE,8.1,-,N/A,,Clear,130,2014-08-07 13:35:00
6:55 AM,60.6,42.4,51,30.09,10.0,Calm,Calm,-,N/A,,Clear,0,2014-08-07 13:55:00
7:15 AM,62.6,43.0,49,30.09,10.0,Calm,Calm,-,N/A,,Clear,0,2014-08-07 14:15:00
7:35 AM,66.0,42.1,42,30.10,10.0,Calm,Calm,-,N/A,,Clear,0,2014-08-07 14:35:00
7:55 AM,67.3,39.7,36,30.10,10.0,NNE,3.5,-,N/A,,Clear,30,2014-08-07 14:55:00
8:15 AM,67.8,39.6,36,30.10,10.0,Calm,Calm,-,N/A,,Clear,0,2014-08-07 15:15:00
8:35 AM,68.7,39.9,35,30.11,10.0,Calm,Calm,-,N/A,,Clear,0,2014-08-07 15:35:00
8:55 AM,70.0,39.6,33,30.11,10.0,Calm,Calm,-,N/A,,Clear,0,2014-08-07 15:55:00
9:15 AM,71.6,41.0,33,30.10,10.0,Calm,Calm,-,N/A,,Clear,0,2014-08-07 16:15:00
9:35 AM,73.8,41.4,31,30.10,10.0,East,3.5,-,N/A,,Clear,80,2014-08-07 16:35:00
9:55 AM,75.6,41.2,29,30.09,10.0,Calm,Calm,-,N/A,,Clear,0,2014-08-07 16:55:00
10:15 AM,76.8,40.8,27,30.09,10.0,Calm,Calm,-,N/A,,Clear,0,2014-08-07 17:15:00
10:35 AM,77.5,40.5,26,30.08,10.0,NNE,3.5,-,N/A,,Clear,20,2014-08-07 17:35:00
10:55 AM,79.2,39.9,25,30.08,10.0,Calm,Calm,-,N/A,,Clear,0,2014-08-07 17:55:00
11:15 AM,79.7,39.7,24,30.08,10.0,ESE,5.8,-,N/A,,Clear,120,2014-08-07 18:15:00
11:35 AM,80.4,39.9,24,30.08,10.0,ENE,5.8,-,N/A,,Clear,70,2014-08-07 18:35:00
11:55 AM,81.5,39.7,23,30.07,10.0,ENE,4.6,-,N/A,,Clear,70,2014-08-07 18:55:00
12:15 PM,82.4,38.7,21,30.06,10.0,NNE,3.5,-,N/A,,Clear,20,2014-08-07 19:15:00
12:35 PM,83.1,36.7,19,30.05,10.0,East,4.6,-,N/A,,Clear,80,2014-08-07 19:35:00
12:55 PM,84.6,34.7,17,30.04,10.0,West,6.9,-,N/A,,Clear,260,2014-08-07 19:55:00
1:15 PM,85.8,35.2,16,30.04,10.0,NE,3.5,-,N/A,,Clear,50,2014-08-07 20:15:00
1:35 PM,86.0,33.8,15,30.03,10.0,SSW,5.8,-,N/A,,Clear,210,2014-08-07 20:35:00
1:55 PM,87.4,32.5,14,30.03,10.0,West,8.1,-,N/A,,Clear,280,2014-08-07 20:55:00
2:15 PM,88.0,31.1,13,30.02,10.0,SW,6.9,-,N/A,,Clear,220,2014-08-07 21:15:00
2:35 PM,88.9,28.8,12,30.01,10.0,WNW,5.8,-,N/A,,Clear,290,2014-08-07 21:35:00
2:55 PM,89.1,29.8,12,30.01,10.0,NNW,3.5,-,N/A,,Clear,340,2014-08-07 21:55:00
3:15 PM,88.2,28.4,12,30.00,10.0,WSW,5.8,-,N/A,,Clear,250,2014-08-07 22:15:00
3:35 PM,89.2,30.0,12,29.99,10.0,WSW,8.1,-,N/A,,Clear,250,2014-08-07 22:35:00
3:55 PM,89.1,29.7,12,29.99,10.0,North,11.5,16.1,N/A,,Clear,350,2014-08-07 22:55:00
4:15 PM,89.4,29.8,12,29.99,10.0,NNE,11.5,16.1,N/A,,Clear,20,2014-08-07 23:15:00
4:35 PM,88.7,34.2,14,29.99,10.0,NNE,13.8,20.7,N/A,,Clear,30,2014-08-07 23:35:00
4:55 PM,88.0,35.2,15,29.99,10.0,North,13.8,19.6,N/A,,Clear,10,2014-08-07 23:55:00
5:15 PM,87.3,36.9,17,29.99,10.0,North,11.5,19.6,N/A,,Clear,350,2014-08-08 00:15:00
5:35 PM,86.4,36.9,17,29.99,10.0,North,13.8,18.4,N/A,,Clear,360,2014-08-08 00:35:00
5:55 PM,85.8,34.7,16,29.99,10.0,North,11.5,20.7,N/A,,Clear,10,2014-08-08 00:55:00
6:15 PM,84.9,32.9,15,29.99,10.0,North,9.2,-,N/A,,Clear,360,2014-08-08 01:15:00
6:35 PM,84.0,32.2,15,29.99,10.0,North,9.2,-,N/A,,Clear,350,2014-08-08 01:35:00
6:55 PM,82.9,34.3,17,30.00,10.0,North,9.2,-,N/A,,Clear,350,2014-08-08 01:55:00
7:15 PM,81.3,35.1,19,30.00,10.0,NNW,8.1,-,N/A,,Clear,340,2014-08-08 02:15:00
7:35 PM,79.0,36.1,21,30.00,10.0,North,6.9,-,N/A,,Clear,350,2014-08-08 02:35:00
7:55 PM,76.3,36.7,24,30.00,10.0,NNW,5.8,-,N/A,,Clear,330,2014-08-08 02:55:00
8:15 PM,72.3,36.5,27,30.01,10.0,NW,4.6,-,N/A,,Clear,310,2014-08-08 03:15:00
8:35 PM,70.5,36.0,28,30.02,10.0,Calm,Calm,-,N/A,,Clear,0,2014-08-08 03:35:00
8:55 PM,69.3,36.0,29,30.02,10.0,Calm,Calm,-,N/A,,Clear,0,2014-08-08 03:55:00
9:15 PM,70.2,34.9,27,30.03,10.0,Calm,Calm,-,N/A,,Clear,0,2014-08-08 04:15:00
9:35 PM,71.2,34.0,25,30.03,10.0,SSW,3.5,-,N/A,,Clear,210,2014-08-08 04:35:00
9:55 PM,69.6,34.0,27,30.04,10.0,Calm,Calm,-,N/A,,Clear,0,2014-08-08 04:55:00
10:15 PM,66.6,35.1,31,30.04,10.0,South,4.6,-,N/A,,Clear,180,2014-08-08 05:15:00
10:35 PM,63.0,36.3,37,30.04,10.0,South,5.8,-,N/A,,Scattered Clouds,170,2014-08-08 05:35:00
10:55 PM,62.1,36.3,38,30.04,10.0,South,4.6,-,N/A,,Scattered Clouds,170,2014-08-08 05:55:00
11:15 PM,61.0,36.5,40,30.04,10.0,Calm,Calm,-,N/A,,Clear,0,2014-08-08 06:15:00
11:35 PM,62.4,36.7,38,30.04,10.0,Calm,Calm,-,N/A,,Clear,0,2014-08-08 06:35:00
11:55 PM,61.3,37.0,40,30.04,10.0,Calm,Calm,-,N/A,,Clear,0,2014-08-08 06:55:00